Date String (YYYY-MM-DD hh:mm:ss) UTC,Instrument flags,Ambient pressure (hPa),Sample flow (lpm),Bypass flow (lpm),Sample temperature (°C),Ambient temperature (°C),ASC tube jacket temperature (°C),LED temperature (°C),Box temperature (°C),Sample RH (%),Span deviation,Mass concentration (μg/m³),Mass concentration (μg/m³),Mass concentration (μg/m³)
DateTimeUTC,F1_M11,P_M11,Q1_M11,Q2_M11,T1_M11,T2_M11,T3_M11,T4_M11,T5_M11,U1_M11,ZSPAN_M11,X0_M11,X2_M11,X1_M11
2022-09-16 17:00:00,,0826.0,5.01,0.00,30.1,28.9,00.0,38.8,32.0,26.4,0000.0,0010.30,0004.60,0003.91
2022-09-16 17:01:00,,0826.0,4.99,0.00,30.2,29.0,00.0,38.8,32.1,26.2,0000.0,0010.37,0004.64,0003.89
2022-09-16 17:02:00,,0826.0,4.99,0.00,30.2,29.1,00.0,38.8,32.1,26.4,0000.0,0010.72,0004.66,0003.87
2022-09-16 17:03:00,,0826.0,5.01,0.00,30.2,28.7,00.0,38.8,32.1,25.7,0000.0,0010.72,0004.63,0003.85
2022-09-16 17:04:00,,0826.0,5.00,0.00,30.2,27.4,00.0,38.8,32.0,25.2,0000.0,0010.63,0004.58,0003.83
2022-09-16 17:05:00,,0825.9,5.00,0.00,30.2,26.7,00.0,38.8,31.9,25.6,0000.0,0011.01,0004.58,0003.82
2022-09-16 17:06:00,,0825.9,5.00,0.00,30.1,26.9,00.0,38.7,31.8,26.1,0000.0,0010.84,0004.50,0003.78
2022-09-16 17:07:00,,0825.9,4.99,0.00,30.0,27.2,00.0,38.7,31.7,26.1,0000.0,0010.42,0004.46,0003.76
2022-09-16 17:08:00,,0825.8,5.00,0.00,30.0,27.6,00.0,38.7,31.7,26.1,0000.0,0010.82,0004.41,0003.74
2022-09-16 17:09:00,,0825.9,4.99,0.00,30.0,27.9,00.0,38.7,31.8,25.8,0000.0,0010.52,0004.38,0003.72
2022-09-16 17:10:00,,0825.8,5.00,0.00,30.0,28.1,00.0,38.7,31.8,25.5,0000.0,0010.27,0004.40,0003.71
2022-09-16 17:11:00,,0825.8,5.00,0.00,30.0,28.3,00.0,38.7,31.8,25.2,0000.0,0010.26,0004.37,0003.69
2022-09-16 17:12:00,,0825.9,4.99,0.00,30.0,28.5,00.0,38.7,31.9,25.5,0000.0,0010.18,0004.29,0003.67
2022-09-16 17:13:00,,0825.7,4.99,0.00,30.0,28.7,00.0,38.7,31.9,26.1,0000.0,0009.83,0004.22,0003.67
2022-09-16 17:14:00,,0825.9,5.02,0.00,30.1,28.8,00.0,38.7,32.0,26.5,0000.0,0009.68,0004.21,0003.67
2022-09-16 17:15:00,,0825.7,4.99,0.00,30.1,28.9,00.0,38.7,32.0,26.0,0000.0,0009.59,0004.19,0003.68
2022-09-16 17:16:00,,0825.9,5.01,0.00,30.1,28.9,00.0,38.7,32.0,25.9,0000.0,0009.30,0004.16,0003.68
2022-09-16 17:17:00,,0826.0,5.00,0.00,30.2,29.0,00.0,38.8,32.1,26.3,0000.0,0009.47,0004.18,0003.69
2022-09-16 17:18:00,,0825.9,4.99,0.00,30.2,29.1,00.0,38.8,32.1,26.3,0000.0,0009.72,0004.23,0003.72
2022-09-16 17:19:00,,0826.0,5.00,0.00,30.2,28.6,00.0,38.8,32.1,26.4,0001.1,0010.09,0004.25,0003.74
2022-09-16 17:20:00,,0825.8,5.00,0.00,30.2,27.3,00.0,38.8,32.0,26.7,0000.5,0010.30,0004.26,0003.76
2022-09-16 17:21:00,,0825.7,5.00,0.00,30.2,26.7,00.0,38.7,32.0,27.1,0000.1,0010.30,0004.30,0003.79
2022-09-16 17:22:00,,0825.7,5.00,0.00,30.1,26.8,00.0,38.7,31.8,27.0,0002.0,0010.88,0004.37,0003.84
2022-09-16 17:23:00,,0825.7,5.00,0.00,30.0,27.2,00.0,38.7,31.7,27.1,0002.3,0011.32,0004.43,0003.87
2022-09-16 17:24:00,,0825.7,5.00,0.00,30.0,27.5,00.0,38.6,31.7,27.4,0001.9,0011.57,0004.51,0003.91
2022-09-16 17:25:00,,0825.7,5.01,0.00,30.0,27.9,00.0,38.6,31.7,27.5,0002.1,0011.80,0004.59,0003.94
2022-09-16 17:26:00,,0825.6,5.00,0.00,30.0,28.1,00.0,38.6,31.7,28.0,0002.0,0012.59,0004.66,0003.97
2022-09-16 17:27:00,,0825.6,4.99,0.00,30.0,28.3,00.0,38.6,31.8,27.7,0002.0,0013.45,0004.69,0003.99
2022-09-16 17:28:00,,0825.6,5.01,0.00,30.0,28.5,00.0,38.6,31.9,27.5,0000.2,0013.12,0004.70,0004.02
2022-09-16 17:29:00,,0825.6,4.99,0.00,30.0,28.6,00.0,38.7,31.9,26.8,0000.8,0013.02,0004.68,0004.03
2022-09-16 17:30:00,,0825.6,5.00,0.00,30.0,28.7,00.0,38.7,31.9,27.2,0001.1,0013.33,0004.69,0004.03
2022-09-16 17:31:00,,0825.7,5.00,0.00,30.1,28.8,00.0,38.7,32.0,27.7,0000.0,0013.09,0004.75,0004.05
2022-09-16 17:32:00,,0825.6,4.99,0.00,30.1,28.9,00.0,38.7,32.0,27.7,0000.2,0013.63,0004.75,0004.05
2022-09-16 17:33:00,,0825.6,5.00,0.00,30.1,29.0,00.0,38.7,32.0,27.5,0000.0,0013.37,0004.69,0004.04
2022-09-16 17:34:00,,0825.6,4.99,0.00,30.2,29.1,00.0,38.8,32.1,27.0,0000.0,0012.60,0004.72,0004.04
2022-09-16 17:35:00,,0825.6,5.01,0.00,30.2,28.6,00.0,38.8,32.1,26.9,0000.0,0012.47,0004.70,0004.04
2022-09-16 17:36:00,,0825.5,5.00,0.00,30.2,27.4,00.0,38.8,32.0,27.1,0000.0,0012.29,0004.66,0004.04
2022-09-16 17:37:00,,0825.5,5.00,0.00,30.1,26.8,00.0,38.7,31.9,27.2,0000.0,0011.75,0004.68,0004.05
2022-09-16 17:38:00,,0825.5,5.00,0.00,30.1,26.9,00.0,38.7,31.8,27.2,0000.0,0010.89,0004.70,0004.06
2022-09-16 17:39:00,,0825.4,5.00,0.00,30.0,27.2,00.0,38.7,31.7,27.2,0000.3,0011.31,0004.74,0004.05
2022-09-16 17:40:00,,0825.5,5.00,0.00,30.0,27.6,00.0,38.6,31.7,26.7,0000.0,0011.18,0004.78,0004.06
2022-09-16 17:41:00,,0825.4,4.99,0.00,30.0,27.9,00.0,38.6,31.7,26.8,0000.0,0010.67,0004.78,0004.06
2022-09-16 17:42:00,,0825.5,5.00,0.00,30.0,28.1,00.0,38.6,31.8,26.7,0001.5,0010.47,0004.77,0004.06
2022-09-16 17:43:00,,0825.5,5.00,0.00,30.0,28.3,00.0,38.6,31.8,26.9,0001.4,0010.65,0004.79,0004.07
2022-09-16 17:44:00,,0825.4,5.00,0.00,30.0,28.5,00.0,38.6,31.8,27.0,0001.5,0011.05,0004.82,0004.08
2022-09-16 17:45:00,,0825.4,4.99,0.00,30.0,28.6,00.0,38.7,31.9,26.8,0001.5,0011.10,0004.82,0004.08
2022-09-16 17:46:00,,0825.4,5.02,0.00,30.0,28.8,00.0,38.7,31.9,26.3,0001.7,0011.87,0004.83,0004.09
2022-09-16 17:47:00,,0825.4,5.00,0.00,30.1,28.9,00.0,38.7,32.0,26.2,0001.5,0012.12,0004.82,0004.09
2022-09-16 17:48:00,,0825.4,5.00,0.00,30.1,29.0,00.0,38.7,32.0,25.9,0001.7,0012.06,0004.76,0004.07
2022-09-16 17:49:00,,0825.4,5.01,0.00,30.1,28.4,00.0,38.7,32.0,25.7,0001.7,0011.98,0004.74,0004.05
2022-09-16 17:50:00,,0825.4,5.00,0.00,30.1,27.2,00.0,38.7,31.9,26.0,0002.2,0011.55,0004.68,0004.04
2022-09-16 17:51:00,,0825.5,4.99,0.00,30.1,26.7,00.0,38.7,31.9,26.5,0002.1,0011.15,0004.62,0004.02
2022-09-16 17:52:00,,0825.4,4.98,0.00,30.0,26.9,00.0,38.6,31.7,26.1,0000.0,0010.77,0004.58,0004.01
2022-09-16 17:53:00,,0825.4,5.00,0.00,29.9,27.2,00.0,38.6,31.6,26.1,0000.0,0010.31,0004.55,0003.99
2022-09-16 17:54:00,,0825.4,5.00,0.00,29.9,27.5,00.0,38.6,31.6,25.9,0000.0,0009.88,0004.51,0003.98
2022-09-16 17:55:00,,0825.3,5.00,0.00,29.9,27.8,00.0,38.6,31.7,25.9,0000.0,0009.97,0004.48,0003.96
2022-09-16 17:56:00,,0825.3,4.99,0.00,29.9,28.1,00.0,38.6,31.7,25.9,0000.0,0010.81,0004.43,0003.94
2022-09-16 17:57:00,,0825.3,5.01,0.00,29.9,28.3,00.0,38.6,31.8,26.1,0000.0,0011.27,0004.41,0003.90
2022-09-16 17:58:00,,0825.3,4.99,0.00,29.9,28.5,00.0,38.6,31.8,25.8,0000.0,0010.96,0004.41,0003.89
2022-09-16 17:59:00,,0825.3,5.01,0.00,29.9,28.6,00.0,38.6,31.8,25.6,0000.0,0011.36,0004.40,0003.88
